TimeHST,TemperatureF,Dew PointF,Humidity,Sea Level PressureIn,VisibilityMPH,Wind Direction,Wind SpeedMPH,Gust SpeedMPH,PrecipitationIn,Events,Conditions,WindDirDegrees,DateUTC
12:45 AM,71.1,64.9,81,30.07,10.0,SW,4.6,-,0.03,Rain,Light Rain,220,2013-06-21 10:45:00
12:53 AM,70.0,64.9,84,30.07,10.0,WSW,5.8,-,0.03,,Mostly Cloudy,240,2013-06-21 10:53:00
1:53 AM,70.0,64.9,84,30.05,10.0,WSW,5.8,-,0.00,,Overcast,240,2013-06-21 11:53:00
2:01 AM,70.0,64.9,84,30.05,10.0,SSE,3.5,-,N/A,,Overcast,150,2013-06-21 12:01:00
2:42 AM,69.1,64.9,87,30.05,10.0,WSW,8.1,-,0.00,Rain,Light Rain,250,2013-06-21 12:42:00
2:53 AM,69.1,64.0,84,30.04,10.0,WSW,9.2,-,0.00,,Overcast,240,2013-06-21 12:53:00
3:53 AM,69.1,64.0,84,30.03,10.0,SW,5.8,-,N/A,,Mostly Cloudy,230,2013-06-21 13:53:00
4:53 AM,69.1,64.0,84,30.03,10.0,SW,4.6,-,N/A,,Overcast,230,2013-06-21 14:53:00
5:53 AM,69.1,63.0,81,30.04,10.0,SSW,4.6,-,N/A,,Mostly Cloudy,210,2013-06-21 15:53:00
6:53 AM,70.0,63.0,78,30.06,10.0,South,4.6,-,0.00,,Mostly Cloudy,190,2013-06-21 16:53:00
7:53 AM,73.0,66.0,79,30.07,10.0,East,3.5,-,0.00,,Mostly Cloudy,80,2013-06-21 17:53:00
8:53 AM,77.0,66.9,71,30.07,10.0,ENE,5.8,-,N/A,,Mostly Cloudy,70,2013-06-21 18:53:00
9:53 AM,77.0,69.1,76,30.07,10.0,SE,5.8,-,0.00,Rain,Light Rain,130,2013-06-21 19:53:00
10:53 AM,80.1,68.0,67,30.06,10.0,East,10.4,-,0.00,,Overcast,90,2013-06-21 20:53:00
11:53 AM,81.0,68.0,65,30.04,10.0,East,10.4,-,N/A,,Overcast,100,2013-06-21 21:53:00
12:53 PM,79.0,66.0,64,30.03,10.0,SSE,8.1,-,N/A,,Overcast,150,2013-06-21 22:53:00
1:53 PM,81.0,66.0,60,30.01,10.0,East,8.1,-,N/A,,Overcast,100,2013-06-21 23:53:00
2:53 PM,78.1,66.9,68,30.01,10.0,NE,8.1,-,N/A,,Overcast,50,2013-06-22 00:53:00
3:04 PM,75.9,68.0,76,30.02,10.0,East,16.1,-,N/A,,Overcast,80,2013-06-22 01:04:00
3:11 PM,75.0,68.0,79,30.02,9.0,East,17.3,-,N/A,,Overcast,80,2013-06-22 01:11:00
3:53 PM,75.0,69.1,82,30.01,10.0,North,4.6,-,0.00,,Overcast,360,2013-06-22 01:53:00
4:16 PM,73.0,69.1,87,30.01,4.0,NNW,5.8,-,0.00,Rain,Light Rain,330,2013-06-22 02:16:00
4:27 PM,73.0,69.1,87,30.00,10.0,WNW,6.9,-,0.00,Rain,Light Rain,300,2013-06-22 02:27:00
4:48 PM,73.4,68.0,83,30.01,2.5,Variable,5.8,-,0.01,Rain,Heavy Rain,0,2013-06-22 02:48:00
4:53 PM,73.0,66.9,81,30.01,2.5,Variable,4.6,-,0.03,Rain,Rain,0,2013-06-22 02:53:00
5:01 PM,73.0,68.0,84,30.01,6.0,Calm,Calm,-,0.01,Rain,Light Rain,0,2013-06-22 03:01:00
5:53 PM,72.0,69.1,91,30.02,1.8,Variable,5.8,-,0.04,Rain,Heavy Rain,0,2013-06-22 03:53:00
6:15 PM,73.0,69.1,87,30.03,10.0,Calm,Calm,-,0.07,,Overcast,0,2013-06-22 04:15:00
6:53 PM,72.0,69.1,91,30.04,10.0,WSW,6.9,-,0.07,,Overcast,250,2013-06-22 04:53:00
7:53 PM,73.0,69.1,87,30.05,10.0,West,4.6,-,N/A,,Overcast,260,2013-06-22 05:53:00
8:53 PM,73.9,68.0,82,30.07,10.0,Calm,Calm,-,0.00,,Overcast,0,2013-06-22 06:53:00
9:15 PM,72.0,68.0,87,30.08,4.0,Variable,3.5,-,0.02,Rain,Rain,0,2013-06-22 07:15:00
9:53 PM,72.0,68.0,87,30.09,10.0,South,5.8,-,0.05,,Overcast,170,2013-06-22 07:53:00
10:08 PM,71.1,66.9,87,30.09,10.0,WSW,4.6,-,N/A,,Overcast,240,2013-06-22 08:08:00
10:53 PM,71.1,66.9,87,30.09,10.0,SW,3.5,-,N/A,,Overcast,230,2013-06-22 08:53:00
11:53 PM,71.1,66.9,87,30.08,10.0,SW,4.6,-,N/A,,Scattered Clouds,220,2013-06-22 09:53:00